Regional Weather Roundup
Issued by NWS Grand Forks, ND

Current Version | Previous Version | Text Only | Print | Product List | Glossary On
Versions: 1 2 3 4 5 6 7 8 9 10 11 12 13 14 15 16 17 18 19 20 21 22 23 24 25 26 27 28 29 30 31 32 33 34 35 36 37 38 39 40 41 42 43 44 45 46 47 48 49 50
000
ASUS43 KFGF 292031
RWRFGF
PRAIRIE TO PINES  WEATHER ROUNDUP
NATIONAL WEATHER SERVICE EASTERN NORTH DAKOTA/GRAND FORKS ND
300 PM CDT SUN MAR 29 2015

 **SATELLITE DATA USED TO AUGMENT SKY COVER AT AUTOMATED STATIONS**
 *****  WEATHER ACROSS EASTERN NORTH DAKOTA  *****

CITY           SKY/WX    TMP DP  RH WIND       PRES   REMARKS
GRAND FORKS    MOSUNNY   53  28  38 NW26G35   29.87R
GRAND FRKS AFB SUNNY     55  26  32 N20G31    29.87S
GRAND FRKS NWS   N/A     52 N/A N/A N18         N/A
DEVILS LAKE    MOSUNNY   54  28  37 NW25G31   29.90S
FARGO          PTSUNNY   57  28  33 NW28G37   29.88
WAHPETON ARPT  PTCLDY    54  27  35 NW30G38   29.90S
$$

 ***** WEATHER ACROSS CENTRAL AND WESTERN NORTH DAKOTA  *****

CITY           SKY/WX    TMP DP  RH WIND       PRES   REMARKS
BISMARCK       MOSUNNY   57  25  29 NW17G26   30.03F
MINOT          MOSUNNY   55  24  30 W23G30    29.95F
JAMESTOWN      MOSUNNY   54  23  30 NW20G33   29.94F
MINOT AFB      MOSUNNY   56  29  35 W25G32    29.94F
GARRISON         N/A     55  32  41 W17G26    29.99F
WILLISTON      CLOUDY    58  33  39 W17       30.01F
DICKINSON      SUNNY     57  32  38 W18G28    30.02F
HETTINGER      SUNNY     59  31  34 NW21G32   30.06
$$

 *****  OTHER AIRPORT OBSERVATIONS IN OUR AREA  *****

CITY           SKY/WX    TMP DP  RH WIND       PRES   REMARKS
WALHALLA         N/A     50  32  50 NW20G33   29.86F
GRAFTON AIRPOR NOT AVBL
VALLEY CITY AR FAIR      54  25  32 NW24G37   29.93F
CANDO          MOCLDY    54  28  37 NW17G29   29.90F
CAVALIER APRT  MOCLDY    52  32  46 NW14      29.86S
GWINNER        CLEAR     55  32  41 N26G37      N/A
SHEYENNE NWR     N/A     55  26  32 NW21      29.95S
ROLLA          MOCLDY    50  28  43 W25G32    29.90F
 ***** THE ABOVE OBSERVATIONS ARE NON NWS ARE NOT QUALITY
       CONTROLLED AND MAY MIS-REPORT RAIN FOR SNOW...
$$

  *****  WEATHER ACROSS NORTHERN MINNESOTA  *****

CITY           SKY/WX    TMP DP  RH WIND       PRES   REMARKS
FLAG ISLAND    SUNNY     39  27  60 NW32      29.74R
WARROAD        MOSUNNY   46  32  57 NW22G32   29.77R
ROSEAU         MOSUNNY   48  34  57 NW20G31   29.78R
HALLOCK        SUNNY     50  34  53 N23       29.84S
THF RVR FALLS  CLOUDY    48  36  61 NW24      29.83S
BAUDETTE       SUNNY     44  31  60 NW24      29.72R
WASKISH        MOSUNNY   45  30  57 NW21G31   29.74R
CROOKSTON      MOSUNNY   54  30  40 N30G37    29.86S
STEPHEN NDAWN    N/A     50  34  53 N20         N/A
GREENBUSH NDAW   N/A     46  36  66 NW20        N/A
$$
  *****  WEATHER ACROSS CENTRAL AND WEST MINNESOTA  *****

CITY           SKY/WX    TMP DP  RH WIND       PRES   REMARKS
FOSSTON        MOSUNNY   45  32  61 NW26G32   29.84R
BEMIDJI        PTSUNNY   46  30  54 NW23G33   29.77R
PARK RAPIDS    MOSUNNY   50  30  46 NW29G39   29.78R
ELBOW LAKE     MOCLDY    50  32  50 NW28G41   29.88R
WADENA         MOSUNNY   48  32  53 NW23G33   29.81R
DETROIT LAKES  MOSUNNY   48  32  53 NW31G38   29.86R
MOORHEAD       MOSUNNY   54  27  35 NW25G33   29.88S
FERGUS FALLS   MOSUNNY   50  28  43 NW29G40   29.89S
MORRIS MN      MOSUNNY   54  32  43 NW30G40   29.87R
STAPLES        MOSUNNY   48  27  43 NW31G43   29.79R
$$
  *****  WEATHER ELSEWHERE ACROSS MINNESOTA  *****

CITY           SKY/WX    TMP DP  RH WIND       PRES   REMARKS
DULUTH         LGT RAIN  38  32  79 NW25G32   29.60R
INTRNTL FALLS  PTSUNNY   42  29  59 NW23G35   29.66R
ELY            RAIN      36  34  93 NW15G28   29.56R
CLOQUET        CLOUDY    41  34  75 NW10G30   29.65R
WHEATON        SUNNY     54  27  35 NW29G38   29.93R
BRAINERD       SUNNY     50  28  42 NW23G40   29.73R
HIBBING        LGT RAIN  39  33  79 NW26G32   29.65R
ALEXANDRIA     PTSUNNY   48  31  51 NW21G38   29.85R
SAINT CLOUD    SUNNY     50  31  48 NW33G46   29.76R
MINNEAPOLIS    MOSUNNY   51  35  54 NW24G36   29.73R
$$

  *****  WEATHER ACROSS SOUTH DAKOTA  *****

CITY           SKY/WX    TMP DP  RH WIND       PRES   REMARKS
SIOUX FALLS    SUNNY     59  25  27 N29G35    29.98R
BROOKINGS      NOT AVBL
WATERTOWN      SUNNY     54  27  35 NW30G37   29.96R
HURON          SUNNY     59  24  26 N29G44    30.02S
SISSETON         N/A     55  31  39 NW31G41   29.91F
ABERDEEN       MOSUNNY   58  24  27 NW18G37   30.02F
MITCHELL       SUNNY     60  23  24 N26G36    30.04S
PIERRE         SUNNY     58  26  29 NW20G32   30.09F
MOBRIDGE       SUNNY     59  25  27 NW20G28   30.03F
RAPID CITY     SUNNY     63  27  25 N21G29    30.10F
$$

  *****  SOME WEATHER IN NEARBY STATES *****

CITY           SKY/WX    TMP DP  RH WIND       PRES   REMARKS
GLASGOW MT     MOSUNNY   61  32  33 W15G23    30.01F
GREAT FALLS MT CLOUDY    56  22  26 SW21G30   30.07F
CHEYENNE WY    SUNNY     60  10  14 NW13      30.20F
SCOTTSBLUFF NE SUNNY     62  25  24 NW17G24   30.19F
OMAHA NE       MOSUNNY   60  37  42 NW23G32   30.01F
DES MOINES IA  CLOUDY    56  39  53 NW26G40   29.91R
DAVENPORT IA   PTSUNNY   53  40  61 SW23G35   29.80F
CHICAGO IL     CLOUDY    38  29  70 SW25G35   29.82F
EAU CLAIRE WI  CLOUDY    40  36  86 NW18G26   29.64R
LA CROSSE WI   CLOUDY    46  36  68 W22G29    29.67R
$$

  *****  SOME NATIONAL WEATHER *****

CITY           SKY/WX    TMP DP  RH WIND       PRES   REMARKS
LA GUARDIA NY  SUNNY     44   2  17 N3        30.18F
RALEIGH NC     MOSUNNY   51  11  20 VRB5      30.32F
ATLANTA GA     MOSUNNY   58  17  20 SE7       30.29F
NEW ORLEANS LA MOSUNNY   76  61  59 S12       30.22F
OKLAHOMA CITY  MOSUNNY   76  49  38 N16       30.02R
ALBUQUERQUE NM PTSUNNY   75  20  12 NW5       30.21F
SALT LAKE CITY MOSUNNY   63  19  18 NW9       30.27F
LOS ANGELES CA MOSUNNY   67  57  70 W8        30.05F
BOISE ID       SUNNY     61  30  31 CALM      30.27F
SEATTLE WA     CLOUDY    56  42  59 SW7       30.25F
$$

*** WEATHER ACROSS MANITOBA...SASKATCHEWAN AND ONTARIO ***
                ***ONTARIO***

CITY           SKY/WX    TMP DP  RH WIND       PRES   REMARKS
GERALDTON      LGT SNOW  32  30  93 SW9       29.33S VSB 1   WCI  24
THUNDER BAY    LGT RAIN  37  34  87 W12G18    29.39S
SIOUX LOOKOUT  FLURRIES  36  28  75 N14G31    29.55R
TORONTO        PTSUNNY   41  12  30 SW20G29   30.02F
BIG TROUT LK   FLURRIES  25  21  86 N12G23    29.51R WCI  14
PICKLE LAKE    LGT SNOW  34  28  80 N10G26    29.45R DRFTSNOW
DRYDEN         PTSUNNY   37  30  75 NW12G26   29.59R
KENORA         PTSUNNY   41  27  56 NW18G29   29.69R
$$
                *** MANITOBA***

CITY           SKY/WX    TMP DP  RH WIND       PRES   REMARKS
BRANDON        MOSUNNY   48  36  61 W17       29.89F
DAUPHIN        SUNNY     45  34  65 W17G23    29.82F
ISLAND LAKE    FLURRIES  30  27  86 N14G21    29.68R WCI  20
PILOT MOUND      N/A     48  34  57 NW18G25     N/A
THE PAS        MOSUNNY   46  27  46 NW15G24   29.76F
THOMPSON       PTSUNNY   25  18  74 N10       29.78R WCI  15
WINNIPEG       MOSUNNY   48  30  49 NW23G31   29.83S
LYNN LAKE      PTSUNNY   34  25  69 NW3       29.76S
CHURCHILL      PTSUNNY    7   1  78 N13       29.90R WCI  -9
GILLAM         MOSUNNY   18   5  57 NE15      29.80R WCI   3
$$
                ***SASKATCHEWAN***

CITY           SKY/WX    TMP DP  RH WIND       PRES   REMARKS
ESTEVAN        MOSUNNY   55  32  41 NW21      29.97F
KINDERSLEY     PTSUNNY   55  39  54 SW10G17   29.87F
LLOYDMINSTER   PTSUNNY   52  37  58 SW10      29.82F
PRINCE ALBERT  MOSUNNY   52  30  43 W12       29.85F
REGINA         MOSUNNY   50  37  62 W9        29.95F
YORKTON        SUNNY     48  28  46 W18       29.89F
N. BATTLEFORD  SUNNY     54  32  43 SW14      29.88F
LA RONGE       MOSUNNY   48  21  34 W13G18    29.81S
SASKATOON      MOSUNNY   52  34  50 SW13      29.90F
SWIFT CURRENT  MOSUNNY   57  30  35 SW18      29.89F
$$
NOTE: THESE ARE AUTOMATED STATIONS WITH LIMITED QUALITY CONTROL
      "FAIR" INDICATES FEW OR NO CLOUDS BELOW 12,000 FEET WITH NO
      SIGNIFICANT WEATHER AND/OR OBSTRUCTIONS TO VISIBILITY.
      SKY/WX - SKY CONDITION AND SIGNIFICANT WEATHER.
      TMP - AIR TEMPERATURE.    DP   - DEWPOINT TEMPERATURE.
      RH  - RELATIVE HUMIDITY.  PRES - PRESSURE.
      HX  - HEAT INDEX.         WCI  - WIND CHILL INDEX.
$



USA.gov is the U.S. government's official web portal to all federal, state and local government web resources and services.